Flag for Germany Weather past 2 weeks in Neuburg an der Donau, Bavaria, Germany

36 °F

Light rain. Passing clouds.

Feels Like: 29 °F
Forecast: 31 / 44 °F
Wind: 9 mph from West

Location: Neuburg / Donau

Current Time: Nov 28, 2015 at 6:31:30 PM

Latest Report: Nov 28, 2015 at 5:20 PM

Visibility: 5 mi

Pressure: 30.09 "Hg

Humidity: 93%

Dew point: 34 °F

Location of Neuburg an der DonauLocation

Historic Weather in Neuburg an der Donau — Graph


Neuburg an der Donau temperature yesterday

Maximum temperature yesterday: 34 °F (at 12:20 AM)
Minimum temperature yesterday: 28 °F (at 8:20 AM)
Average temperature yesterday: 32 °F

Past Weeks' High & Low Weather Summary

High63 °F (Nov 16, 2:20 PM)100% (Nov 20, 3:20 PM)30.42 "Hg (Nov 20, 3:20 PM)
Low23 °F (Nov 24, 3:58 AM)51% (Nov 18, 10:20 AM)29.42 "Hg (Nov 21, 1:20 PM)
Average41 °F83%29.97 "Hg
* Reported Nov 13 5:20 PM — Nov 28 5:20 PM, Neuburg an der Donau, Weather by CustomWeather, © 2015

Note: Actual official high and low records may vary slightly from our data, if they occured in-between our weather recording intervals... More about our weather records


Neuburg an der Donau weather history for previous 24 hours

Time TempWeatherWind HumidityBarometerVisibility
5:20 PM
Sat, Nov 28
36 °FLight rain. Passing clouds.9 mph93%30.09 "Hg5 mi
4:20 PM36 °FLight rain. Broken clouds.14 mph93%30.07 "Hg4 mi
3:20 PM36 °FDrizzle. Fog.13 mph93%30.04 "Hg3 mi
2:45 PM36 °FLight rain. Broken clouds.13 mph93%30.01 "HgN/A
2:20 PM36 °FLight rain. Partly sunny.15 mph93%30.01 "Hg4 mi
1:20 PM34 °FLight rain. Fog.20 mph93%29.95 "Hg3 mi
12:46 PM34 °FDrizzle. Fog.17 mph93%29.95 "Hg2 mi
12:20 PM34 °FLight rain. Fog.17 mph93%29.92 "Hg2 mi
11:20 AM32 °FSnow. Mostly cloudy.13 mph100%29.92 "Hg1 mi
10:20 AM32 °FSnow. Mostly cloudy.8 mph100%29.92 "Hg1 mi
9:20 AM32 °FSnow. More clouds than sun.10 mph93%29.89 "Hg1 mi
9:03 AM32 °FSnow. Partly sunny.8 mph87%29.89 "Hg2 mi
8:20 AM32 °FLight snow. Partly sunny.6 mph87%29.89 "HgN/A
7:20 AM30 °FPassing clouds.7 mph86%29.89 "HgN/A
6:20 AM30 °FPassing clouds.6 mph86%29.89 "HgN/A
5:20 AM34 °FPassing clouds.10 mph70%29.89 "HgN/A
4:20 AM32 °FPassing clouds.3 mph93%29.89 "Hg4 mi
3:20 AM32 °FIce fog.3 mph93%29.92 "Hg3 mi
2:20 AM32 °FIce fog.1 mph93%29.92 "Hg3 mi
12:20 AM32 °FPassing clouds.3 mph87%29.95 "Hg4 mi
11:20 PM
Fri, Nov 27
32 °FPassing clouds.3 mph87%29.95 "Hg4 mi
10:20 PM32 °FPassing clouds.5 mph87%29.98 "HgN/A
9:20 PM30 °FPassing clouds.1 mph93%29.98 "HgN/A
8:20 PM32 °FPassing clouds.5 mph80%29.98 "HgN/A
7:20 PM32 °FPassing clouds.2 mph87%30.01 "Hg5 mi
6:20 PM32 °FLow clouds.3 mph93%30.01 "Hg4 mi
Weather by CustomWeather, © 2015

See weather overviewHow to use our weather pages